SBIRS GEO-5 (USA 315)

Last updated on Thu Sep 10 2026 00:03:00 GMT+0000 (Coordinated Universal Time)

1 48618U 21042A 26252.60420838 -.00000288 00000+0 00000+0 0 9991 2 48618 5.0037 329.7784 0001774 211.9532 118.2250 1.00271303 19619
UTC large
Height (km)
Speed (km/s)
/
Latitude / Longitude
Inclination (degrees)
Orbital Period (minutes)
Azimuth
Elevation
Range (km)
Doppler Factor

Next 0 passes for location: London (51.5072 / 0.1276)

No passes found over London.
SBIRS GEO-5 (USA 315)